TimeMDT,TemperatureF,Dew PointF,Humidity,Sea Level PressureIn,VisibilityMPH,Wind Direction,Wind SpeedMPH,Gust SpeedMPH,PrecipitationIn,Events,Conditions,WindDirDegrees,DateUTC
12:00 AM,12,10,90,30.21,,West,13.8,,,,,260,2012-10-03 06:00:00
12:00 AM,12.4,10.4,92,30.21,-9999.0,West,13.8,-,N/A,,Unknown,260,2012-10-03 06:00:00
1:00 AM,14.5,12.6,92,30.21,-9999.0,West,10.4,-,N/A,,Unknown,260,2012-10-03 07:00:00
2:00 AM,15.8,13.8,92,30.20,-9999.0,West,12.7,-,N/A,,Unknown,270,2012-10-03 08:00:00
3:00 AM,17.2,14.9,91,30.19,-9999.0,West,13.8,-,N/A,,Unknown,260,2012-10-03 09:00:00
4:00 AM,17.8,15.4,91,30.19,-9999.0,West,9.2,-,N/A,,Unknown,260,2012-10-03 10:00:00
5:00 AM,15.4,12.9,90,30.19,-9999.0,West,16.1,-,N/A,,Unknown,260,2012-10-03 11:00:00
6:00 AM,15,11,79,30.20,,West,15.0,,,,,270,2012-10-03 12:00:00
6:00 AM,14.5,11.5,88,30.20,-9999.0,West,15.0,-,N/A,,Unknown,270,2012-10-03 12:00:00
7:00 AM,13.8,10.4,86,30.19,-9999.0,West,15.0,-,N/A,,Unknown,270,2012-10-03 13:00:00
8:00 AM,13.8,9.9,84,30.20,-9999.0,West,13.8,-,N/A,,Unknown,260,2012-10-03 14:00:00
9:00 AM,14.2,9.5,82,30.19,-9999.0,West,11.5,-,N/A,,Unknown,270,2012-10-03 15:00:00
10:00 AM,14.0,10.8,87,30.18,-9999.0,West,15.0,-,N/A,,Unknown,260,2012-10-03 16:00:00
11:00 AM,17.6,14.4,87,30.18,-9999.0,West,12.7,-,N/A,,Unknown,260,2012-10-03 17:00:00
12:00 PM,18,16,86,30.18,,SW,6.9,,,,,230,2012-10-03 18:00:00
12:00 PM,18.5,15.6,89,30.18,-9999.0,SW,6.9,-,N/A,,Unknown,230,2012-10-03 18:00:00
1:00 PM,21.6,19.4,91,30.17,-9999.0,WSW,8.1,-,N/A,,Unknown,240,2012-10-03 19:00:00
2:00 PM,22.5,20.1,91,30.16,-9999.0,WSW,10.4,-,N/A,,Unknown,240,2012-10-03 20:00:00
3:00 PM,24.6,22.3,91,30.15,-9999.0,WSW,15.0,-,N/A,,Unknown,250,2012-10-03 21:00:00
4:00 PM,25.9,24.3,94,30.16,-9999.0,West,11.5,-,N/A,,Unknown,260,2012-10-03 22:00:00
5:00 PM,27.3,25.7,94,30.16,-9999.0,West,17.3,-,N/A,,Unknown,270,2012-10-03 23:00:00
6:00 PM,28,26,89,30.16,,West,18.4,,,,,270,2012-10-04 00:00:00
6:00 PM,27.7,26.1,94,30.16,-9999.0,West,18.4,-,N/A,,Unknown,270,2012-10-04 00:00:00
7:00 PM,27.3,25.5,93,30.17,-9999.0,West,18.4,-,N/A,,Unknown,270,2012-10-04 01:00:00
9:00 PM,26.4,24.1,91,30.17,-9999.0,West,16.1,-,N/A,,Unknown,270,2012-10-04 03:00:00
10:00 PM,25.5,22.5,88,30.17,-9999.0,West,17.3,-,N/A,,Unknown,260,2012-10-04 04:00:00
11:00 PM,22.3,18.9,87,30.17,-9999.0,WSW,23.0,-,N/A,,Unknown,250,2012-10-04 05:00:00